MUOS-3                  
1 40374U 15002A   19260.76515878 -.00000132  00000-0  00000+0 0  9997
2 40374   3.1026 340.8218 0059330 180.8314  94.7535  1.00272816 17102
ATLAS 5 CENTAUR R/B     
1 40375U 15002B   19258.71411385 -.00000232  00000-0  00000+0 0  9999
2 40375  19.1672  17.4993 6081765  25.7953 354.7056  2.08930724 35502